This demonstration page uses our WeatherBlox Daily Observations layout. Learn more.

Hourly Observations for November 24, 2016

Temp ( °F °C ) Dew Point ( °F °C ) Humidity (%) Winds ( mph kmh ) Pressure ( in mb ) Visibility ( mi km ) Precip ( " mm )
12:16 am 00:16 Cloudy 36 2 34 1 93 93 Calm 30.24 1024 10 16.0934 0 0
12:54 am 00:54 Cloudy 37 2.8 33 0.6 86 86 S 3 6 30.21 1023 10 16.0934 0 0
1:54 am 01:54 Cloudy 36 2.2 33 0.6 89 89 Calm 30.22 1023 10 16.0934 0 0
2:13 am 02:13 Cloudy 36 2.2 33 0.6 89 89 Calm 30.27 1025 10 16.0934 0 0
2:33 am 02:33 Cloudy 37 2.8 33 0.6 86 86 SE 3 6 30.24 1024 10 16.0934 0 0
2:54 am 02:54 Cloudy 36 2.2 33 0.6 89 89 SE 5 7 30.21 1023 10 16.0934 0 0
3:54 am 03:54 Cloudy 36 2.2 33 0.6 89 89 S 5 7 30.2 1023 10 16.0934 0 0
4:54 am 04:54 Cloudy 36 2.2 32 0 86 86 S 8 13 30.2 1023 10 16.0934 0 0
5:54 am 05:54 Cloudy 36 2.2 32 0 86 86 S 5 7 30.19 1022 10 16.0934 0 0
6:54 am 06:54 Cloudy 36 2.2 33 0.6 89 89 SSE 7 11 30.19 1023 10 16.0934 0 0
7:54 am 07:54 Cloudy 36 2.2 32 0 86 86 SE 9 15 30.18 1022 10 16.0934 0 0
8:54 am 08:54 Cloudy 37 2.8 33 0.6 86 86 SE 10 17 30.19 1022 9 14.48406 0 0
9:54 am 09:54 Cloudy 37 2.8 33 0.6 86 86 SSE 10 17 30.18 1022 8 12.87472 0 0
10:27 am 10:27 Cloudy 37 2.8 33 0.6 86 86 SE 6 9 30.24 1024 7 11.26538 0 0
10:54 am 10:54 Cloudy 38 3.3 34 1.1 86 86 SE 7 11 30.2 1023 8 12.87472 0 0
11:06 am 11:06 Cloudy 37 3 34 1 87 87 SE 8 13 30.24 1024 8 12.87472 0 0
11:54 am 11:54 Cloudy 39 3.9 34 1.1 82 82 ESE 3 6 30.19 1022 8 12.87472 0 0
12:54 pm 12:54 Cloudy 39 3.9 34 1.1 82 82 Calm 30.2 1023 8 12.87472 0 0
1:54 pm 13:54 Cloudy 39 3.9 34 1.1 82 82 NNE 7 11 30.19 1023 8 12.87472 0 0
2:54 pm 14:54 Cloudy 39 3.9 34 1.1 82 82 ENE 3 6 30.19 1023 7 11.26538 0 0
3:54 pm 15:54 Cloudy 39 3.9 34 1.1 82 82 N 6 9 30.23 1024 7 11.26538 0 0
4:44 pm 16:44 Cloudy 39 3.9 34 1.1 82 82 Calm 30.27 1025 8 12.87472 0 0
4:54 pm 16:54 Cloudy 39 3.9 34 1.1 82 82 Calm 30.24 1024 8 12.87472 0 0
5:31 pm 17:31 Cloudy 39 4 34 1 81 81 WSW 3 6 30.3 1026 9 14.48406 0 0
5:54 pm 17:54 Cloudy 39 3.9 34 1.1 82 82 NNW 5 7 30.26 1025 9 14.48406 0 0
6:16 pm 18:16 Cloudy 39 4 34 1 81 81 NW 5 7 30.3 1026 9 14.48406 0 0
6:49 pm 18:49 Cloudy 39 4 36 2 87 87 NW 5 7 30.33 1027 9 14.48406 0 0
6:54 pm 18:54 Cloudy 39 3.9 35 1.7 86 86 NW 6 9 30.29 1026 9 14.48406 0 0
7:54 pm 19:54 Cloudy 39 3.9 35 1.7 86 86 NW 6 9 30.32 1027 9 14.48406 0 0
8:05 pm 20:05 Cloudy 39 3.9 35 1.7 86 86 NW 5 7 30.33 1027 9 14.48406 0 0
8:36 pm 20:36 Cloudy 39 4 36 2 87 87 NW 5 7 30.33 1027 9 14.48406 0 0
8:54 pm 20:54 Cloudy 39 3.9 35 1.7 86 86 NW 6 9 30.33 1027 9 14.48406 0 0
9:24 pm 21:24 Cloudy 39 4 36 2 87 87 WNW 3 6 30.36 1028 9 14.48406 0 0
9:54 pm 21:54 Cloudy 39 3.9 36 2.2 89 89 W 5 7 30.35 1028 8 12.87472 0 0
10:54 pm 22:54 Cloudy 39 4 36 2 87 87 W 7 11 30.36 1028 7 11.26538 0 0
11:54 pm 23:54 Cloudy 41 5 35 1.7 79 79 WNW 8 13 30.37 1028 10 16.0934 0 0

Powered by AerisWeather